Total_Precipitation_Accumulation
0.03 0.06 0.07 0.14 0.10 0.03 0.05 0.08 0.03 0.03 0.04 0.01 0.01 0.00 0.00 0.02 0.06 0.10 0.13 0.25 0.44 0.52 0.39 0.27 0.18 0.13 0.12 0.10 0.09 0.07 0.05 0.05 0.04 0.04 0.05 0.05 0.04 0.04 0.02 0.01 0.05 0.07 0.07
0.02 0.06 0.05 0.07 0.05 0.05 0.08 0.04 0.04 0.05 0.05 0.01 0.00 0.00 0.00 0.01 0.03 0.09 0.17 0.24 0.41 0.62 0.69 0.54 0.42 0.32 0.22 0.16 0.12 0.09 0.06 0.05 0.06 0.06 0.07 0.05 0.05 0.04 0.03 0.02 0.06 0.10 0.11
0.03 0.06 0.04 0.03 0.05 0.07 0.07 0.07 0.09 0.07 0.07 0.02 0.01 0.00 0.00 0.02 0.02 0.03 0.08 0.18 0.24 0.31 0.46 0.56 0.60 0.53 0.36 0.21 0.13 0.08 0.05 0.04 0.05 0.06 0.06 0.05 0.04 0.03 0.03 0.04 0.06 0.07 0.07
0.02 0.07 0.06 0.04 0.11 0.14 0.11 0.09 0.06 0.05 0.07 0.04 0.03 0.01 0.00 0.01 0.02 0.02 0.02 0.03 0.04 0.04 0.05 0.10 0.14 0.25 0.33 0.31 0.23 0.13 0.07 0.04 0.03 0.03 0.03 0.02 0.02 0.03 0.04 0.03 0.03 0.04 0.05
0.04 0.08 0.09 0.05 0.07 0.16 0.16 0.11 0.08 0.10 0.06 0.05 0.03 0.02 0.00 0.00 0.00 0.00 0.00 0.00 0.00 0.00 0.00 0.00 0.00 0.02 0.05 0.13 0.21 0.20 0.15 0.09 0.05 0.03 0.02 0.01 0.01 0.03 0.03 0.02 0.02 0.04 0.05
0.08 0.10 0.12 0.07 0.06 0.17 0.24 0.17 0.17 0.15 0.13 0.10 0.07 0.04 0.01 0.00 0.00 0.00 0.00 0.00 0.00 0.00 0.00 0.00 0.00 0.00 0.00 0.01 0.04 0.09 0.13 0.10 0.07 0.05 0.04 0.02 0.01 0.02 0.02 0.02 0.03 0.03 0.03
0.18 0.16 0.13 0.16 0.16 0.21 0.31 0.31 0.33 0.29 0.19 0.10 0.18 0.16 0.06 0.01 0.00 0.00 0.00 0.00 0.00 0.00 0.00 0.00 0.00 0.00 0.00 0.00 0.00 0.01 0.04 0.06 0.06 0.04 0.04 0.03 0.01 0.02 0.02 0.01 0.02 0.03 0.03
0.35 0.25 0.20 0.25 0.23 0.30 0.49 0.47 0.43 0.36 0.23 0.11 0.21 0.32 0.18 0.08 0.03 0.00 0.00 0.00 0.00 0.00 0.00 0.00 0.00 0.00 0.00 0.00 0.00 0.00 0.00 0.02 0.05 0.05 0.03 0.03 0.02 0.02 0.02 0.01 0.04 0.06 0.03
0.58 0.45 0.36 0.35 0.32 0.33 0.48 0.54 0.50 0.42 0.31 0.16 0.12 0.21 0.28 0.24 0.10 0.01 0.00 0.00 0.00 0.00 0.00 0.00 0.00 0.00 0.00 0.00 0.00 0.00 0.00 0.00 0.02 0.04 0.04 0.03 0.03 0.03 0.02 0.02 0.05 0.07 0.03
0.68 0.63 0.53 0.49 0.38 0.30 0.33 0.41 0.49 0.46 0.44 0.31 0.19 0.13 0.11 0.14 0.14 0.07 0.02 0.00 0.00 0.00 0.00 0.00 0.00 0.00 0.00 0.00 0.00 0.00 0.00 0.00 0.01 0.02 0.04 0.04 0.04 0.04 0.03 0.03 0.07 0.07 0.05
0.61 0.54 0.51 0.52 0.43 0.32 0.30 0.37 0.49 0.54 0.45 0.39 0.30 0.27 0.21 0.13 0.06 0.11 0.12 0.05 0.01 0.00 0.00 0.00 0.00 0.00 0.00 0.00 0.00 0.00 0.00 0.00 0.00 0.01 0.02 0.04 0.05 0.05 0.05 0.05 0.05 0.06 0.07
0.60 0.49 0.48 0.51 0.55 0.48 0.39 0.36 0.42 0.49 0.50 0.53 0.45 0.34 0.32 0.23 0.11 0.10 0.15 0.14 0.08 0.02 0.00 0.00 0.00 0.00 0.00 0.00 0.00 0.00 0.00 0.00 0.00 0.01 0.01 0.02 0.03 0.04 0.05 0.07 0.05 0.05 0.06
0.62 0.59 0.54 0.56 0.58 0.54 0.53 0.52 0.46 0.43 0.44 0.47 0.49 0.45 0.43 0.33 0.13 0.09 0.11 0.13 0.16 0.08 0.02 0.00 0.00 0.00 0.00 0.00 0.00 0.00 0.00 0.00 0.00 0.00 0.01 0.01 0.02 0.03 0.05 0.10 0.12 0.14 0.21
0.45 0.46 0.50 0.54 0.57 0.57 0.56 0.56 0.51 0.46 0.41 0.39 0.44 0.50 0.55 0.50 0.31 0.18 0.16 0.20 0.23 0.20 0.12 0.04 0.01 0.00 0.00 0.00 0.00 0.00 0.00 0.00 0.00 0.00 0.00 0.01 0.01 0.02 0.03 0.06 0.11 0.18 0.38
0.27 0.26 0.32 0.41 0.47 0.51 0.54 0.55 0.52 0.50 0.45 0.40 0.41 0.43 0.42 0.41 0.36 0.25 0.15 0.15 0.24 0.26 0.26 0.18 0.06 0.00 0.00 0.00 0.00 0.00 0.00 0.00 0.00 0.00 0.00 0.00 0.01 0.01 0.02 0.02 0.03 0.04 0.09
0.23 0.26 0.29 0.32 0.37 0.44 0.52 0.55 0.57 0.55 0.48 0.40 0.35 0.34 0.33 0.32 0.32 0.29 0.24 0.16 0.16 0.23 0.28 0.24 0.11 0.01 0.00 0.00 0.00 0.00 0.00 0.00 0.00 0.00 0.00 0.00 0.01 0.01 0.01 0.01 0.01 0.01 0.01
0.30 0.25 0.26 0.34 0.34 0.35 0.42 0.51 0.61 0.66 0.58 0.50 0.39 0.33 0.35 0.33 0.39 0.39 0.37 0.28 0.21 0.21 0.25 0.22 0.10 0.03 0.01 0.00 0.00 0.00 0.00 0.00 0.00 0.00 0.00 0.00 0.01 0.01 0.00 0.00 0.00 0.00 0.00
0.16 0.16 0.20 0.26 0.29 0.34 0.40 0.49 0.58 0.63 0.61 0.52 0.44 0.36 0.33 0.31 0.34 0.36 0.39 0.33 0.27 0.21 0.24 0.25 0.12 0.05 0.02 0.00 0.00 0.00 0.00 0.00 0.00 0.00 0.00 0.00 0.01 0.01 0.01 0.00 0.00 0.00 0.00
0.09 0.12 0.17 0.22 0.25 0.29 0.37 0.42 0.46 0.47 0.41 0.37 0.34 0.29 0.28 0.27 0.28 0.31 0.33 0.30 0.25 0.18 0.20 0.25 0.16 0.06 0.02 0.00 0.00 0.00 0.00 0.00 0.00 0.00 0.00 0.00 0.00 0.01 0.01 0.00 0.00 0.00 0.00
0.03 0.05 0.09 0.11 0.16 0.20 0.24 0.28 0.31 0.36 0.32 0.25 0.20 0.20 0.22 0.19 0.17 0.20 0.25 0.25 0.27 0.24 0.24 0.25 0.19 0.07 0.03 0.01 0.00 0.00 0.00 0.00 0.00 0.00 0.00 0.00 0.00 0.00 0.01 0.00 0.00 0.00 0.00
0.01 0.03 0.08 0.11 0.14 0.16 0.18 0.24 0.24 0.29 0.30 0.26 0.22 0.19 0.16 0.15 0.15 0.15 0.18 0.25 0.30 0.30 0.29 0.27 0.22 0.11 0.04 0.01 0.01 0.00 0.00 0.00 0.00 0.00 0.00 0.00 0.00 0.00 0.00 0.00 0.00 0.00 0.00
0.02 0.03 0.05 0.09 0.15 0.13 0.20 0.24 0.25 0.28 0.27 0.22 0.18 0.21 0.24 0.21 0.13 0.10 0.10 0.16 0.22 0.27 0.28 0.28 0.27 0.18 0.08 0.03 0.01 0.00 0.00 0.00 0.00 0.00 0.00 0.00 0.00 0.00 0.00 0.00 0.00 0.00 0.00
0.04 0.05 0.04 0.09 0.15 0.20 0.24 0.19 0.23 0.27 0.24 0.19 0.14 0.16 0.21 0.22 0.26 0.22 0.16 0.12 0.11 0.18 0.28 0.34 0.32 0.28 0.29 0.17 0.06 0.02 0.01 0.01 0.00 0.00 0.00 0.00 0.00 0.00 0.00 0.00 0.00 0.00 0.00
0.09 0.08 0.08 0.10 0.15 0.21 0.20 0.15 0.24 0.28 0.27 0.27 0.21 0.18 0.19 0.19 0.21 0.31 0.36 0.29 0.23 0.24 0.35 0.25 0.24 0.38 0.40 0.28 0.15 0.08 0.04 0.02 0.02 0.01 0.00 0.00 0.00 0.00 0.00 0.00 0.00 0.00 0.00
0.19 0.14 0.11 0.12 0.16 0.18 0.16 0.11 0.14 0.23 0.25 0.24 0.21 0.19 0.19 0.20 0.25 0.31 0.35 0.33 0.31 0.31 0.52 0.54 0.49 0.45 0.37 0.27 0.18 0.13 0.07 0.03 0.02 0.01 0.00 0.00 0.00 0.00 0.00 0.00 0.00 0.00 0.00
0.31 0.25 0.18 0.14 0.15 0.15 0.16 0.07 0.04 0.10 0.17 0.25 0.26 0.22 0.25 0.22 0.25 0.23 0.21 0.26 0.27 0.33 0.39 0.39 0.37 0.33 0.26 0.20 0.13 0.10 0.07 0.05 0.03 0.02 0.00 0.00 0.00 0.00 0.00 0.00 0.00 0.00 0.00